Aérodrome :
LOGIN :

S'inscrire | Disclaimer

   EN    FR    IT 

 










Légende :    VFR   VFR Marginal   IFR   IFR Intensif   IFR Très Intensif
Visi : 
Plafond : 
>= 8 km
>= 3000ft
5 à 8 km
1000 à 3000 ft
1500m à 5 km
500 à 1000 ft
800 à 1500m
200 à 500 ft
< 800m
< 200 ft
Symboles :   Orages  Brouillard  Fortes neiges  Fortes précipitations  Vent > 20 kt
SIGMETs :   Divers  Orages  Givrage  Turbulence  Onde Orograph.  Cendres Volcan.






- Altitude de l'aérodrome : 87 ft
- Code IATA : BEY


OLBA - Rafic Hariri Int.

DERNIER METAR :
  • 010200Z 16007KT 8000 FEW020CB SCT026 16/08 Q1014 NOSIG

METARs EXPIRÉS :
  • 010100Z 15007KT 8000 FEW020CB SCT026 16/09 Q1014 NOSIG

TAF TAF OLBA
Valide du 01 à 00h jusqu'au 02 à 06h UTC


302200Z 0100/0206 17006KT 8000 BKN026
PROB40
TEMPO 0100/0115 -RA
PROB30
TEMPO 0100/0109 25010G20KT 7000 -TSRA FEW020CB SCT025
BECMG 0106/0109 32010KT
BECMG 0118/0121 14004KT 9999 SCT026
FIR OLBB / Asie



MET'MAP, la Météo Aéronautique d'un coup d'oeil ! - Copyright ORBIFLY Décembre 2007 - Disclaimer

ORBIFLY MET'MAP TEAM :

Programmation & Développement : Alexandra Zaïnal
Sur une idée originale de : Baudouin d'Aumeries
Assistance à la programmation : Marc-Olivier Méhu
Soutien technique & logistique : Manuel Goepfert

Contact : metmap@orbifly.com




SOURCES & CREDITS :

   NOAA